Location: Pl�tzky
(52.0521°N, 11.8020°E)
Time: 07:20:04
(UTC+00:00)

NOSS 3-1 (C) - Pass Details

Date: 22 November 2019
Orbit: 765 x 1444 km, 63.4° (Epoch: 11 December)

Event Time Altitude Azimuth Distance (km) Brightness Sun altitude
Rises 16:34:39 0° 236° (SW) 3,355 7.9 -12.2°
Reaches altitude 10° 16:36:58 10° 239° (WSW) 2,485 7.0 -12.5°
Maximum altitude 16:42:41 67° 322° (NW) 1,028 3.7 -13.4°
Enters shadow 16:48:37 14° 44° (NE) 2,619 5.2 -14.2°
